[[[{"header":{"parameterUnit":"kt","parameterCategory":2,"dx":1,"dy":1,"la1":30.253999710083008,"la2":30.299108505249023,"lo1":-89.0895004272461,"lo2":-89.04439544677734,"nx":28,"ny":28,"refTime":"2022-09-30T21:00:00:Z","depth":0,"parameterNumber":1,"parameterNumberName":"U-component_of_WINDS"},"data":[-1.5301,-1.5509,-1.551,-1.5748,-1.5789,-1.5954,-1.6014,-1.609,-1.6152,-1.635,-1.6464,-1.6487,-1.6551,-1.669,-1.6816,-1.6824,-1.6881,-1.6953,-1.6953,-1.6621,-1.6576,-1.6533,-1.6486,-1.6963,-1.6964,-1.7299,-1.7302,-1.7305,-1.5058,-1.51,-1.5225,-1.5348,-1.5456,-1.5385,-1.5478,-1.5575,-1.5724,-1.5801,-1.5913,-1.6088,-1.6227,-1.6268,-1.6403,-1.6504,-1.6482,-1.6541,-1.6539,-1.6552,-1.6195,-1.6145,-1.6556,-1.6556,-1.6556,-1.6556,-1.6556,-1.6556,-1.4618,-1.4742,-1.4816,-1.4953,-1.5014,-1.5096,-1.5216,-1.5241,-1.5365,-1.5504,-1.548,-1.5651,-1.573,-1.5894,-1.595,-1.6085,-1.6021,-1.6088,-1.6107,-1.6127,-1.615,-1.5678,-1.6106,-1.6105,-1.6104,-1.6103,-1.6102,0,-1.4299,-1.4291,-1.441,-1.4531,-1.463,-1.4725,-1.4811,-1.4885,-1.487,-1.4974,-1.5125,-1.5213,-1.5386,-1.5531,-1.5657,-1.5702,-1.5649,-1.564,-1.5688,-1.5709,-1.571,-1.5721,-1.5147,-1.5631,-1.5627,-1.5624,-1.5621,-1.562,-1.3863,-1.4005,-1.4082,-1.4167,-1.4214,-1.4351,-1.4433,-1.4408,-1.4498,-1.4602,-1.4715,-1.4856,-1.497,-1.5213,-1.5246,-1.5377,-1.5355,-1.554,-1.5375,-1.5385,-1.5369,-1.5365,-1.5382,-1.5577,-1.5582,-1.5587,-1.559,0,-1.362,-1.3619,-1.384,-1.3903,-1.3923,-1.4075,-1.4131,-1.4254,-1.4264,-1.4437,-1.4476,-1.4496,-1.4646,-1.4648,-1.4819,-1.4817,-1.5075,-1.5043,-1.5048,-1.5046,-1.5218,-1.5206,-1.5763,-1.5837,-1.5332,-1.5337,-1.5341,0,-1.3253,-1.3441,-1.3431,-1.356,-1.3767,-1.3738,-1.3946,-1.3977,-1.4043,-1.4179,-1.4112,-1.4241,-1.4222,-1.4353,-1.4349,-1.4558,-1.4588,-1.4603,-1.4602,-1.4615,-1.4615,-1.4672,-1.4653,-1.4581,-1.4578,-1.4576,-1.4574,0,-1.288,-1.3091,-1.3298,-1.3348,-1.3435,-1.3534,-1.3575,-1.3649,-1.3731,-1.3836,-1.389,-1.4014,-1.4086,-1.4184,-1.418,-1.4069,-1.4433,-1.428,-1.4449,-1.445,-1.4539,-1.4536,-1.5018,-1.457,-1.4569,-1.4568,-1.4567,0,-1.2588,-1.2691,-1.2988,-1.3061,-1.3119,-1.3254,-1.3376,-1.3491,-1.3575,-1.3581,-1.3664,-1.3623,-1.38,-1.3649,-1.3896,-1.3753,-1.3828,-1.3855,-1.3867,-1.3893,-1.3727,-1.401,-1.446,-1.4513,-1.3903,-1.3898,-1.3893,0,-1.2165,-1.2464,-1.2442,-1.2725,-1.2865,-1.2783,-1.2933,-1.3008,-1.3028,-1.3151,-1.3173,-1.3315,-1.3202,-1.3248,-1.3367,-1.34,-1.3584,-1.3373,-1.3563,-1.3571,-1.3553,-1.3964,-1.4036,-1.4359,-1.3822,-1.3829,-1.3834,0,-1.1839,-1.1941,-1.1993,-1.205,-1.2143,-1.2259,-1.243,-1.2562,-1.2647,-1.2735,-1.2884,-1.3078,-1.3004,-1.3079,-1.306,-1.3186,-1.3458,-1.309,-1.3092,-1.3164,-1.3783,-1.3851,-1.3905,-1.3418,-1.3427,-1.3434,-1.3778,0,-1.1413,-1.156,-1.1698,-1.1823,-1.1911,-1.2087,-1.2088,-1.2181,-1.2152,-1.2171,-1.2384,-1.2448,-1.2588,-1.2646,-1.2621,-1.2905,-1.2861,-1.2779,-1.2641,-1.2907,-1.3022,-1.3067,-1.2469,-1.2465,-1.2462,-1.2459,0,0,-1.1014,-1.1226,-1.1197,-1.1361,-1.1436,-1.1349,-1.1539,-1.16,-1.173,-1.1785,-1.1704,-1.1992,-1.2049,-1.231,-1.2393,-1.2446,-1.2501,-1.2408,-1.2778,-1.2813,-1.2846,-1.2968,-1.3016,-1.2453,-1.2452,-1.245,-1.2449,0,-1.086,-1.0911,-1.1095,-1.1157,-1.1248,-1.1257,-1.1301,-1.1378,-1.14,-1.1606,-1.1538,-1.1666,-1.1896,-1.1968,-1.2035,-1.2372,-1.2319,-1.2413,-1.2597,-1.2742,-1.2782,-1.2818,-1.2946,-1.2991,-1.2441,-1.2441,-1.2442,0,-1.0546,-1.06,-1.0687,-1.0847,-1.0907,-1.1051,-1.0903,-1.1061,-1.1169,-1.1074,-1.1282,-1.1319,-1.1414,-1.1657,-1.1766,-1.1698,-1.2155,-1.2009,-1.2031,-1.2046,-1.2187,-1.2235,-1.2278,-1.1716,-1.1714,-1.1711,0,0,-1.0415,-1.055,-1.0603,-1.0814,-1.0856,-1.0873,-1.0949,-1.093,-1.1014,-1.1049,-1.1096,-1.1183,-1.1317,-1.1406,-1.1531,-1.1796,-1.1819,-1.1919,-1.1953,-1.1981,-1.2012,-1.2161,-1.2208,-1.1702,-1.1702,-1.1701,0,0,-1.0353,-1.0422,-1.0378,-1.0622,-1.0703,-1.0773,-1.0904,-1.0853,-1.0965,-1.0947,-1.0926,-1.0948,-1.1175,-1.1215,-1.1086,-1.1484,-1.1345,-1.1376,-1.1451,-1.1494,-1.1528,-1.1518,-1.0949,0,0,0,0,0,-1.0199,-1.0412,-1.0372,-1.0413,-1.0616,-1.0793,-1.082,-1.0806,-1.0707,-1.0812,-1.0843,-1.0778,-1.1141,-1.1026,-1.1069,-1.1217,-1.1578,-1.16,-1.1621,-1.178,-1.1825,-1.1863,0,0,0,0,0,0,-1.0215,-1.0265,-1.0366,-1.0444,-1.049,-1.0786,-1.0617,-1.0619,-1.0696,-1.068,-1.0774,-1.0781,-1.0774,-1.1003,-1.1042,-1.1183,-1.0936,-1.1587,-1.1605,-1.1622,-1.1795,-1.1832,-1.1864,0,0,0,0,0,-1.0227,-1.0268,-1.0597,-1.0441,-1.0481,-1.0513,-1.0609,-1.061,-1.0669,-1.072,-1.0724,-1.0651,-1.0779,-1.0811,-1.1026,-1.1166,-1.0909,-1.0923,-1.1599,-1.1614,-1.1627,-1.1813,0,0,0,0,0,0,-1.0237,-1.0271,-1.0605,-1.0616,-1.0359,-1.0496,-1.0516,-1.0601,-1.0703,-1.071,-1.0595,-1.0582,-1.0784,-1.0808,-1.0833,-1.116,-1.0887,-1.0902,-1.0911,-1.161,-1.1621,-1.1632,0,0,0,0,0,0,-1.0249,-1.0281,-1.0611,-1.0508,-1.0508,-1.0481,-1.0499,-1.068,-1.0705,-1.0573,-1.0564,-1.0588,-1.0748,-1.0808,-1.0827,-1.111,-1.087,-1.0884,-1.0894,-1.09,-1.1619,-1.1628,0,0,0,0,0,0,-1.0262,-1.029,-1.0505,-1.0505,-1.0504,-1.0634,-1.064,-1.0851,-1.0613,-1.057,-1.0592,-1.0582,-1.075,-1.0768,-1.0823,-1.1098,-1.1107,-1.087,-1.088,-1.0887,-1.0891,0,0,0,0,0,0,0,-1.0273,-1.009,-1.0535,-1.0502,-1.0501,-1.0724,-1.0727,-1.0731,-1.0611,-1.0603,-1.0594,-1.0586,-1.0788,-1.0804,-1.082,-1.1089,0,0,-1.0869,-1.0876,0,0,0,0,0,0,0,0,-1.0078,-1.0087,-1.0535,-1.0538,-1.054,-1.0725,-1.0727,-1.073,-1.061,-1.0603,-1.0596,-1.0589,-1.0792,-1.0805,-1.0818,0,0,0,0,0,0,0,0,0,0,0,0,0,0,0,-1.0536,-1.0538,0,-1.0725,-1.0727,-1.0729,-1.0609,-1.0603,-1.0597,-1.0592,-1.0796,-1.0806,-1.0817,0,0,0,0,0,0,0,0,0,0,0,0,0,0,0,0,0,0,0,0,0,0,0,0,0,0,0,0,0,0,0,0,0,0,0,0,0,0,0,0,0,0,0,0,0,0,0,0,0,0,0,0,0,0,0,0,0,0,0,0,0,0,0,0,0,0,0,0,0]}],[{"header":{"parameterUnit":"kt","parameterCategory":2,"dx":1,"dy":1,"la1":30.253999710083008,"la2":30.299108505249023,"lo1":-89.0895004272461,"lo2":-89.04439544677734,"nx":28,"ny":28,"refTime":"2022-09-30T21:00:00:Z","depth":0,"parameterNumber":2,"parameterNumberName":"V-component_of_WINDS"},"data":[-7.8769,-7.8985,-7.903,-7.9296,-7.9382,-7.9571,-7.9652,-7.9762,-7.9861,-8.0089,-8.0228,-8.0294,-8.0408,-8.0582,-8.0733,-8.0758,-8.0818,-8.0861,-8.0883,-8.0652,-8.0623,-8.0595,-8.0547,-8.0874,-8.0874,-8.1114,-8.1116,-8.1118,-7.8593,-7.8681,-7.8836,-7.9016,-7.9149,-7.9135,-7.9276,-7.9387,-7.9555,-7.9679,-7.9818,-8.0022,-8.0188,-8.029,-8.0456,-8.0554,-8.0556,-8.0596,-8.0588,-8.0606,-8.0362,-8.031,-8.0592,-8.0592,-8.0592,-8.0592,-8.0592,-8.0592,-7.8285,-7.8413,-7.8549,-7.8718,-7.8821,-7.8941,-7.907,-7.915,-7.93,-7.9482,-7.9506,-7.9697,-7.9827,-8.0049,-8.0134,-8.0282,-8.0245,-8.0302,-8.0316,-8.0329,-8.0337,-7.9981,-8.0312,-8.0312,-8.0311,-8.0311,-8.031,0,-7.8073,-7.8103,-7.8255,-7.8421,-7.8546,-7.8679,-7.8807,-7.8888,-7.8964,-7.9085,-7.9264,-7.9374,-7.959,-7.9761,-7.9927,-8.0004,-7.9999,-8.0004,-8.0043,-8.0033,-8.0003,-8.0019,-7.9617,-7.9993,-7.9991,-7.9989,-7.9988,-7.9987,-7.7764,-7.7909,-7.8074,-7.8174,-7.8256,-7.8418,-7.8522,-7.8579,-7.8688,-7.8853,-7.8962,-7.9135,-7.9277,-7.9553,-7.9641,-7.9802,-7.9801,-7.9939,-7.9825,-7.9809,-7.9801,-7.9791,-7.9804,-7.996,-7.9963,-7.9966,-7.9968,0,-7.7585,-7.766,-7.7898,-7.8047,-7.8089,-7.8237,-7.8363,-7.8493,-7.8555,-7.8742,-7.8788,-7.8886,-7.9059,-7.9126,-7.9337,-7.9366,-7.9606,-7.9602,-7.9561,-7.9563,-7.9692,-7.9678,-8.0105,-8.0163,-7.9827,-7.983,-7.9833,0,-7.7349,-7.7537,-7.7637,-7.7772,-7.7981,-7.8034,-7.824,-7.8314,-7.8429,-7.8576,-7.8583,-7.8721,-7.8785,-7.8932,-7.8975,-7.9183,-7.9224,-7.9257,-7.9266,-7.9256,-7.9252,-7.9312,-7.9295,-7.9283,-7.9281,-7.9279,-7.9278,0,-7.7059,-7.7334,-7.7554,-7.7628,-7.7806,-7.7907,-7.7985,-7.8114,-7.8216,-7.8359,-7.8426,-7.8588,-7.8677,-7.8801,-7.8855,-7.8775,-7.9112,-7.9013,-7.9146,-7.9145,-7.9216,-7.921,-7.9574,-7.9275,-7.9274,-7.9273,-7.9273,0,-7.688,-7.7027,-7.7335,-7.7482,-7.7552,-7.7696,-7.7861,-7.8,-7.8136,-7.8173,-7.8286,-7.8298,-7.8487,-7.8383,-7.8643,-7.8523,-7.8609,-7.8659,-7.867,-7.8689,-7.857,-7.8764,-7.9105,-7.9142,-7.8708,-7.8704,-7.87,0,-7.6527,-7.6858,-7.6907,-7.7198,-7.736,-7.7357,-7.7518,-7.7638,-7.7702,-7.7847,-7.7916,-7.8081,-7.8018,-7.8078,-7.8199,-7.8276,-7.8432,-7.8257,-7.846,-7.8467,-7.8423,-7.8738,-7.8771,-7.9023,-7.8641,-7.8647,-7.8651,0,-7.6262,-7.6479,-7.6528,-7.6614,-7.6784,-7.692,-7.7105,-7.7281,-7.7375,-7.751,-7.7665,-7.7899,-7.786,-7.7961,-7.7988,-7.8109,-7.8328,-7.8051,-7.8055,-7.8097,-7.8617,-7.8647,-7.869,-7.8318,-7.8326,-7.8331,-7.8604,0,-7.5971,-7.6147,-7.6283,-7.6474,-7.659,-7.6777,-7.6851,-7.6962,-7.6977,-7.704,-7.727,-7.7387,-7.7564,-7.763,-7.7646,-7.7904,-7.7871,-7.7828,-7.773,-7.7937,-7.8028,-7.8066,-7.7587,-7.7585,-7.7583,-7.7581,0,0,-7.5613,-7.5867,-7.5915,-7.6098,-7.6198,-7.6193,-7.6386,-7.6483,-7.6679,-7.6747,-7.6694,-7.704,-7.7137,-7.7408,-7.7478,-7.7551,-7.7603,-7.7528,-7.7838,-7.7866,-7.7893,-7.799,-7.8028,-7.7577,-7.7577,-7.7576,-7.7575,0,-7.5522,-7.5625,-7.5816,-7.5919,-7.6074,-7.6132,-7.6178,-7.6329,-7.6378,-7.6605,-7.6596,-7.6742,-7.7018,-7.7121,-7.721,-7.7498,-7.7481,-7.7546,-7.7676,-7.7815,-7.7846,-7.7874,-7.7975,-7.801,-7.757,-7.7571,-7.7571,0,-7.5273,-7.5386,-7.5487,-7.5717,-7.5818,-7.5985,-7.5901,-7.6082,-7.6206,-7.6188,-7.6414,-7.6488,-7.6632,-7.688,-7.6994,-7.6949,-7.7365,-7.7247,-7.7262,-7.7276,-7.7413,-7.745,-7.7483,-7.7045,-7.7043,-7.7041,0,0,-7.5183,-7.5348,-7.5486,-7.5703,-7.5767,-7.5856,-7.5953,-7.5978,-7.6109,-7.6162,-7.6257,-7.6384,-7.6544,-7.6649,-7.6803,-7.7066,-7.7098,-7.7179,-7.7204,-7.7224,-7.7248,-7.7391,-7.7428,-7.7033,-7.7033,-7.7033,0,0,-7.514,-7.531,-7.5302,-7.5563,-7.5689,-7.5838,-7.5967,-7.596,-7.6107,-7.6094,-7.6142,-7.6178,-7.6411,-7.6484,-7.6369,-7.6769,-7.6671,-7.67,-7.6712,-7.6745,-7.6769,-7.6746,-7.6297,0,0,0,0,0,-7.5085,-7.5289,-7.528,-7.5335,-7.5626,-7.5843,-7.5881,-7.5926,-7.5856,-7.5957,-7.6035,-7.6011,-7.6432,-7.6331,-7.6383,-7.6511,-7.693,-7.6948,-7.6965,-7.7044,-7.7077,-7.7104,0,0,0,0,0,0,-7.5107,-7.5174,-7.5274,-7.5431,-7.5497,-7.5836,-7.5727,-7.5745,-7.5846,-7.5839,-7.5997,-7.6016,-7.6058,-7.6307,-7.6354,-7.6474,-7.6282,-7.6937,-7.6953,-7.6967,-7.7055,-7.7082,-7.7105,0,0,0,0,0,-7.5124,-7.5178,-7.5634,-7.5429,-7.5486,-7.5596,-7.572,-7.5734,-7.5813,-7.5935,-7.5953,-7.5839,-7.606,-7.6103,-7.6335,-7.6452,-7.625,-7.6267,-7.6947,-7.6959,-7.697,-7.7068,0,0,0,0,0,0,-7.5138,-7.5192,-7.5646,-7.5665,-7.5356,-7.5578,-7.5614,-7.5724,-7.5903,-7.5924,-7.5777,-7.5769,-7.6065,-7.6097,-7.6129,-7.6442,-7.6224,-7.6241,-7.6252,-7.6956,-7.6966,-7.6975,0,0,0,0,0,0,-7.5164,-7.5209,-7.5656,-7.5561,-7.557,-7.5561,-7.5593,-7.5797,-7.5905,-7.5736,-7.5734,-7.5772,-7.6015,-7.6094,-7.6119,-7.6434,-7.6204,-7.622,-7.6232,-7.6239,-7.6964,-7.6972,0,0,0,0,0,0,-7.5183,-7.5222,-7.5556,-7.5563,-7.557,-7.5787,-7.5741,-7.6036,-7.5826,-7.5728,-7.5808,-7.58,-7.6012,-7.6039,-7.6112,-7.6417,-7.643,-7.6204,-7.6216,-7.6224,-7.6229,0,0,0,0,0,0,0,-7.5199,-7.493,-7.5533,-7.5565,-7.557,-7.5841,-7.5846,-7.5851,-7.5824,-7.5817,-7.581,-7.5804,-7.6108,-7.6126,-7.6145,-7.6402,0,0,-7.6202,-7.6211,0,0,0,0,0,0,0,0,-7.4915,-7.4927,-7.5534,-7.5538,-7.5542,-7.5842,-7.5846,-7.585,-7.5823,-7.5817,-7.5812,-7.5806,-7.6113,-7.6128,-7.6143,0,0,0,0,0,0,0,0,0,0,0,0,0,0,0,-7.5534,-7.5538,0,-7.5842,-7.5846,-7.5849,-7.5822,-7.5817,-7.5813,-7.5808,-7.6117,-7.6129,-7.6142,0,0,0,0,0,0,0,0,0,0,0,0,0,0,0,0,0,0,0,0,0,0,0,0,0,0,0,0,0,0,0,0,0,0,0,0,0,0,0,0,0,0,0,0,0,0,0,0,0,0,0,0,0,0,0,0,0,0,0,0,0,0,0,0,0,0,0,0,0]}]]]